Time,TemperatureF,DewpointF,PressureIn,WindDirection,WindDirectionDegrees,WindSpeedMPH,WindSpeedGustMPH,Humidity,HourlyPrecipIn,Conditions,Clouds,dailyrainin,SoftwareType,DateUTC
2013-08-05 00:01:00,66.7,56.2,30.01,WNW,284,0.0,0.0,69,0.00,,,0.00,Wunderground v.1.15,2013-08-05 04:01:00,
2013-08-05 00:04:00,66.7,56.2,30.02,WNW,284,0.0,0.0,69,0.00,,,0.00,Wunderground v.1.15,2013-08-05 04:04:00,
2013-08-05 00:05:00,66.7,56.2,30.02,WNW,284,0.0,0.0,69,0.00,,,0.00,Wunderground v.1.15,2013-08-05 04:05:00,
2013-08-05 00:08:00,66.7,56.2,30.01,WNW,284,0.0,0.0,69,0.00,,,0.00,Wunderground v.1.15,2013-08-05 04:08:00,
2013-08-05 00:16:00,66.5,56.0,30.02,WNW,284,0.0,0.0,69,0.00,,,0.00,Wunderground v.1.15,2013-08-05 04:16:00,
2013-08-05 00:21:00,66.5,56.0,30.02,WNW,284,0.0,0.0,69,0.00,,,0.00,Wunderground v.1.15,2013-08-05 04:21:00,
2013-08-05 00:28:00,66.3,56.2,30.01,WNW,284,0.0,0.0,70,0.00,,,0.00,Wunderground v.1.15,2013-08-05 04:28:00,
2013-08-05 00:33:00,66.3,55.8,30.01,WNW,284,0.0,0.0,69,0.00,,,0.00,Wunderground v.1.15,2013-08-05 04:33:00,
2013-08-05 00:38:00,66.4,55.9,30.01,WNW,284,0.0,0.0,69,0.00,,,0.00,Wunderground v.1.15,2013-08-05 04:38:00,
2013-08-05 00:43:00,66.3,56.2,30.01,WNW,284,0.0,0.0,70,0.00,,,0.00,Wunderground v.1.15,2013-08-05 04:43:00,
2013-08-05 00:49:00,66.1,56.0,30.01,WNW,284,0.0,0.0,70,0.00,,,0.00,Wunderground v.1.15,2013-08-05 04:49:00,
2013-08-05 00:54:00,65.9,56.2,30.01,WNW,284,0.0,0.0,71,0.00,,,0.00,Wunderground v.1.15,2013-08-05 04:54:00,
2013-08-05 00:59:00,65.8,56.1,30.01,WNW,284,0.0,0.0,71,0.00,,,0.00,Wunderground v.1.15,2013-08-05 04:59:00,
2013-08-05 01:05:00,65.7,56.4,30.01,WNW,284,0.0,0.0,72,0.00,,,0.00,Wunderground v.1.15,2013-08-05 05:05:00,
2013-08-05 01:11:00,65.5,56.2,30.01,WNW,289,0.0,0.0,72,0.00,,,0.00,Wunderground v.1.15,2013-08-05 05:11:00,
2013-08-05 01:17:00,65.6,55.9,30.01,WNW,301,0.0,0.0,71,0.00,,,0.00,Wunderground v.1.15,2013-08-05 05:17:00,
2013-08-05 01:23:00,65.7,56.0,30.01,WNW,294,0.0,0.0,71,0.00,,,0.00,Wunderground v.1.15,2013-08-05 05:23:00,
2013-08-05 01:28:00,65.5,55.8,30.00,WNW,298,0.0,0.0,71,0.00,,,0.00,Wunderground v.1.15,2013-08-05 05:28:00,
2013-08-05 01:35:00,65.4,55.7,30.00,WNW,287,0.0,0.0,71,0.00,,,0.00,Wunderground v.1.15,2013-08-05 05:35:00,
2013-08-05 01:40:00,65.3,55.7,30.00,WNW,297,0.0,0.0,71,0.00,,,0.00,Wunderground v.1.15,2013-08-05 05:40:00,
2013-08-05 01:46:00,65.0,55.8,30.01,WNW,286,0.0,0.0,72,0.00,,,0.00,Wunderground v.1.15,2013-08-05 05:46:00,
2013-08-05 01:52:00,65.0,55.8,30.01,WNW,286,0.0,0.0,72,0.00,,,0.00,Wunderground v.1.15,2013-08-05 05:52:00,
2013-08-05 01:57:00,64.7,55.5,30.01,West,280,0.0,0.0,72,0.00,,,0.00,Wunderground v.1.15,2013-08-05 05:57:00,
2013-08-05 02:02:00,64.5,55.7,30.01,West,280,0.0,0.0,73,0.00,,,0.00,Wunderground v.1.15,2013-08-05 06:02:00,
2013-08-05 02:07:00,64.4,55.6,30.01,West,280,0.0,0.0,73,0.00,,,0.00,Wunderground v.1.15,2013-08-05 06:07:00,
2013-08-05 02:12:00,64.3,55.8,30.01,West,280,0.0,0.0,74,0.00,,,0.00,Wunderground v.1.15,2013-08-05 06:12:00,
2013-08-05 02:17:00,64.2,55.7,30.01,West,280,0.0,0.0,74,0.00,,,0.00,Wunderground v.1.15,2013-08-05 06:17:00,
2013-08-05 02:22:00,64.1,55.6,30.01,West,280,0.0,0.0,74,0.00,,,0.00,Wunderground v.1.15,2013-08-05 06:22:00,
2013-08-05 02:27:00,64.1,55.6,30.01,West,280,0.0,0.0,74,0.00,,,0.00,Wunderground v.1.15,2013-08-05 06:27:00,
2013-08-05 02:32:00,64.1,55.3,30.02,West,280,0.0,0.0,73,0.00,,,0.00,Wunderground v.1.15,2013-08-05 06:32:00,
2013-08-05 02:37:00,64.0,55.5,30.02,West,281,0.0,0.0,74,0.00,,,0.00,Wunderground v.1.15,2013-08-05 06:37:00,
2013-08-05 02:42:00,64.0,55.5,30.02,NW,317,0.0,0.0,74,0.00,,,0.00,Wunderground v.1.15,2013-08-05 06:42:00,
2013-08-05 02:47:00,64.0,55.5,30.02,NW,311,0.0,0.0,74,0.00,,,0.00,Wunderground v.1.15,2013-08-05 06:47:00,
2013-08-05 02:52:00,63.8,55.7,30.02,WNW,284,0.0,0.0,75,0.00,,,0.00,Wunderground v.1.15,2013-08-05 06:52:00,
2013-08-05 02:57:00,63.8,55.7,30.02,WNW,284,0.0,0.0,75,0.00,,,0.00,Wunderground v.1.15,2013-08-05 06:57:00,
2013-08-05 03:02:00,63.6,55.5,30.02,WNW,284,0.0,0.0,75,0.00,,,0.00,Wunderground v.1.15,2013-08-05 07:02:00,
2013-08-05 03:07:00,63.6,55.5,30.03,WNW,284,0.0,0.0,75,0.00,,,0.00,Wunderground v.1.15,2013-08-05 07:07:00,
2013-08-05 03:12:00,63.5,55.4,30.03,WNW,284,0.0,0.0,75,0.00,,,0.00,Wunderground v.1.15,2013-08-05 07:12:00,
2013-08-05 03:17:00,63.2,55.5,30.03,WNW,284,0.0,0.0,76,0.00,,,0.00,Wunderground v.1.15,2013-08-05 07:17:00,
2013-08-05 03:22:00,63.1,55.4,30.03,WNW,284,0.0,0.0,76,0.00,,,0.00,Wunderground v.1.15,2013-08-05 07:22:00,
2013-08-05 03:27:00,62.9,55.6,30.03,WNW,284,0.0,0.0,77,0.00,,,0.00,Wunderground v.1.15,2013-08-05 07:27:00,
2013-08-05 03:32:00,62.7,55.4,30.03,WNW,284,0.0,0.0,77,0.00,,,0.00,Wunderground v.1.15,2013-08-05 07:32:00,
2013-08-05 03:37:00,62.4,55.4,30.03,WNW,284,0.0,0.0,78,0.00,,,0.00,Wunderground v.1.15,2013-08-05 07:37:00,
2013-08-05 03:42:00,62.2,55.6,30.03,WNW,284,0.0,0.0,79,0.00,,,0.00,Wunderground v.1.15,2013-08-05 07:42:00,
2013-08-05 03:47:00,61.9,55.7,30.03,WNW,284,0.0,0.0,80,0.00,,,0.00,Wunderground v.1.15,2013-08-05 07:47:00,
2013-08-05 03:52:00,61.7,55.5,30.03,WNW,284,0.0,0.0,80,0.00,,,0.00,Wunderground v.1.15,2013-08-05 07:52:00,
2013-08-05 03:57:00,61.5,55.6,30.03,WNW,284,0.0,0.0,81,0.00,,,0.00,Wunderground v.1.15,2013-08-05 07:57:00,
2013-08-05 04:02:00,61.4,55.5,30.03,WNW,284,0.0,0.0,81,0.00,,,0.00,Wunderground v.1.15,2013-08-05 08:02:00,
2013-08-05 04:07:00,61.3,55.4,30.03,WNW,284,0.0,0.0,81,0.00,,,0.00,Wunderground v.1.15,2013-08-05 08:07:00,
2013-08-05 04:12:00,61.2,55.7,30.03,WNW,284,0.0,0.0,82,0.00,,,0.00,Wunderground v.1.15,2013-08-05 08:12:00,
2013-08-05 04:17:00,61.3,55.8,30.02,WNW,289,0.0,0.0,82,0.00,,,0.00,Wunderground v.1.15,2013-08-05 08:17:00,
2013-08-05 04:22:00,61.4,55.5,30.03,WNW,296,0.0,0.0,81,0.00,,,0.00,Wunderground v.1.15,2013-08-05 08:22:00,
2013-08-05 04:27:00,61.6,55.7,30.03,WNW,296,0.0,0.0,81,0.00,,,0.00,Wunderground v.1.15,2013-08-05 08:27:00,
2013-08-05 04:32:00,61.6,55.4,30.03,WNW,295,0.0,0.0,80,0.00,,,0.00,Wunderground v.1.15,2013-08-05 08:32:00,
2013-08-05 04:37:00,61.9,55.7,30.03,WNW,299,0.0,0.0,80,0.00,,,0.00,Wunderground v.1.15,2013-08-05 08:37:00,
2013-08-05 04:42:00,61.9,55.3,30.03,WNW,294,0.0,0.0,79,0.00,,,0.00,Wunderground v.1.15,2013-08-05 08:42:00,
2013-08-05 04:48:00,61.8,55.2,30.03,WNW,294,0.0,0.0,79,0.00,,,0.00,Wunderground v.1.15,2013-08-05 08:48:00,
2013-08-05 04:54:00,61.8,55.2,30.03,WNW,296,0.0,0.0,79,0.00,,,0.00,Wunderground v.1.15,2013-08-05 08:54:00,
2013-08-05 04:59:00,61.8,55.2,30.03,WNW,296,0.0,0.0,79,0.00,,,0.00,Wunderground v.1.15,2013-08-05 08:59:00,
2013-08-05 05:04:00,62.0,55.4,30.04,WNW,297,0.0,0.0,79,0.00,,,0.00,Wunderground v.1.15,2013-08-05 09:04:00,
2013-08-05 05:09:00,62.0,55.4,30.04,WNW,284,0.0,0.0,79,0.00,,,0.00,Wunderground v.1.15,2013-08-05 09:09:00,
2013-08-05 05:14:00,62.2,55.3,30.04,WNW,291,0.0,0.0,78,0.00,,,0.00,Wunderground v.1.15,2013-08-05 09:14:00,
2013-08-05 05:19:00,62.2,55.3,30.04,WNW,288,0.0,0.0,78,0.00,,,0.00,Wunderground v.1.15,2013-08-05 09:19:00,
2013-08-05 05:24:00,62.3,55.4,30.04,WNW,291,0.0,0.0,78,0.00,,,0.00,Wunderground v.1.15,2013-08-05 09:24:00,
2013-08-05 05:30:00,62.1,55.2,30.04,WNW,291,0.0,0.0,78,0.00,,,0.00,Wunderground v.1.15,2013-08-05 09:30:00,
2013-08-05 05:35:00,62.2,55.3,30.04,WNW,298,0.0,0.0,78,0.00,,,0.00,Wunderground v.1.15,2013-08-05 09:35:00,
2013-08-05 05:40:00,62.4,55.1,30.04,West,279,0.0,0.0,77,0.00,,,0.00,Wunderground v.1.15,2013-08-05 09:40:00,
2013-08-05 05:45:00,62.4,55.1,30.04,WNW,286,0.0,0.0,77,0.00,,,0.00,Wunderground v.1.15,2013-08-05 09:45:00,
2013-08-05 05:50:00,62.5,55.2,30.04,WNW,286,0.0,0.0,77,0.00,,,0.00,Wunderground v.1.15,2013-08-05 09:50:00,
2013-08-05 05:55:00,62.5,55.2,30.05,WNW,291,0.0,0.0,77,0.00,,,0.00,Wunderground v.1.15,2013-08-05 09:55:00,
2013-08-05 06:00:00,62.5,55.2,30.05,NW,306,0.0,0.0,77,0.00,,,0.00,Wunderground v.1.15,2013-08-05 10:00:00,
2013-08-05 06:05:00,62.5,55.2,30.05,WNW,294,0.0,0.0,77,0.00,,,0.00,Wunderground v.1.15,2013-08-05 10:05:00,
2013-08-05 06:11:00,62.2,54.9,30.05,WNW,291,0.0,0.0,77,0.00,,,0.00,Wunderground v.1.15,2013-08-05 10:11:00,
2013-08-05 06:16:00,62.1,55.2,30.05,NW,308,0.0,0.0,78,0.00,,,0.00,Wunderground v.1.15,2013-08-05 10:16:00,
2013-08-05 06:21:00,62.1,55.2,30.05,WNW,300,0.0,0.0,78,0.00,,,0.00,Wunderground v.1.15,2013-08-05 10:21:00,
2013-08-05 06:27:00,62.0,55.1,30.05,WNW,299,0.0,0.0,78,0.00,,,0.00,Wunderground v.1.15,2013-08-05 10:27:00,
2013-08-05 06:32:00,61.9,55.0,30.06,West,281,0.0,0.0,78,0.00,,,0.00,Wunderground v.1.15,2013-08-05 10:32:00,
2013-08-05 06:36:00,61.6,55.0,30.06,West,281,0.0,0.0,79,0.00,,,0.00,Wunderground v.1.15,2013-08-05 10:36:00,
2013-08-05 06:42:00,61.6,55.4,30.06,West,281,0.0,0.0,80,0.00,,,0.00,Wunderground v.1.15,2013-08-05 10:42:00,
2013-08-05 06:47:00,61.7,55.1,30.06,West,281,0.0,0.0,79,0.00,,,0.00,Wunderground v.1.15,2013-08-05 10:47:00,
2013-08-05 06:52:00,61.8,55.2,30.06,West,281,0.0,0.0,79,0.00,,,0.00,Wunderground v.1.15,2013-08-05 10:52:00,
2013-08-05 06:58:00,61.9,55.3,30.06,West,281,0.0,0.0,79,0.00,,,0.00,Wunderground v.1.15,2013-08-05 10:58:00,
2013-08-05 07:04:00,62.0,55.8,30.06,West,281,0.0,0.0,80,0.00,,,0.00,Wunderground v.1.15,2013-08-05 11:04:00,
2013-08-05 07:09:00,61.9,55.7,30.06,West,281,0.0,0.0,80,0.00,,,0.00,Wunderground v.1.15,2013-08-05 11:09:00,
2013-08-05 07:14:00,62.3,56.0,30.07,West,281,0.0,0.0,80,0.00,,,0.00,Wunderground v.1.15,2013-08-05 11:14:00,
2013-08-05 07:20:00,62.4,56.1,30.07,West,281,0.0,0.0,80,0.00,,,0.00,Wunderground v.1.15,2013-08-05 11:20:00,
2013-08-05 07:25:00,62.8,56.5,30.07,West,281,0.0,0.0,80,0.00,,,0.00,Wunderground v.1.15,2013-08-05 11:25:00,
2013-08-05 07:30:00,63.3,56.3,30.07,West,281,0.0,0.0,78,0.00,,,0.00,Wunderground v.1.15,2013-08-05 11:30:00,
2013-08-05 07:35:00,64.0,56.6,30.08,West,281,0.0,0.0,77,0.00,,,0.00,Wunderground v.1.15,2013-08-05 11:35:00,
2013-08-05 07:40:00,64.9,56.8,30.08,West,281,0.0,0.0,75,0.00,,,0.00,Wunderground v.1.15,2013-08-05 11:40:00,
2013-08-05 07:45:00,65.2,56.7,30.08,West,271,0.0,0.0,74,0.00,,,0.00,Wunderground v.1.15,2013-08-05 11:45:00,
2013-08-05 07:51:00,65.3,57.2,30.08,West,281,0.0,0.0,75,0.00,,,0.00,Wunderground v.1.15,2013-08-05 11:51:00,
2013-08-05 07:56:00,65.6,57.1,30.08,NW,323,0.0,0.0,74,0.00,,,0.00,Wunderground v.1.15,2013-08-05 11:56:00,
2013-08-05 08:01:00,65.9,57.0,30.08,WNW,282,0.0,0.0,73,0.00,,,0.00,Wunderground v.1.15,2013-08-05 12:01:00,
2013-08-05 08:06:00,66.0,57.5,30.08,West,275,4.0,6.0,74,0.00,,,0.00,Wunderground v.1.15,2013-08-05 12:06:00,
2013-08-05 08:12:00,66.6,57.3,30.08,NW,319,1.0,4.0,72,0.00,,,0.00,Wunderground v.1.15,2013-08-05 12:12:00,
2013-08-05 08:16:00,66.9,58.3,30.08,West,275,2.0,4.0,74,0.00,,,0.00,Wunderground v.1.15,2013-08-05 12:16:00,
2013-08-05 08:21:00,66.9,58.3,30.08,West,271,1.0,3.0,74,0.00,,,0.00,Wunderground v.1.15,2013-08-05 12:21:00,
2013-08-05 08:27:00,67.2,58.2,30.08,WSW,257,1.0,4.0,73,0.00,,,0.00,Wunderground v.1.15,2013-08-05 12:27:00,
2013-08-05 08:32:00,67.6,57.9,30.08,West,267,3.0,3.0,71,0.00,,,0.00,Wunderground v.1.15,2013-08-05 12:32:00,
2013-08-05 08:37:00,68.2,58.4,30.08,WSW,251,3.0,5.0,71,0.00,,,0.00,Wunderground v.1.15,2013-08-05 12:37:00,
2013-08-05 08:42:00,68.2,58.4,30.08,West,274,3.0,5.0,71,0.00,,,0.00,Wunderground v.1.15,2013-08-05 12:42:00,
2013-08-05 08:48:00,68.5,58.7,30.08,West,268,2.0,5.0,71,0.00,,,0.00,Wunderground v.1.15,2013-08-05 12:48:00,
2013-08-05 08:53:00,68.8,58.2,30.08,West,268,2.0,4.0,69,0.00,,,0.00,Wunderground v.1.15,2013-08-05 12:53:00,
2013-08-05 08:59:00,68.9,58.7,30.08,SW,220,3.0,5.0,70,0.00,,,0.00,Wunderground v.1.15,2013-08-05 12:59:00,
2013-08-05 09:04:00,69.3,59.1,30.09,WNW,282,0.0,4.0,70,0.00,,,0.00,Wunderground v.1.15,2013-08-05 13:04:00,
2013-08-05 09:10:00,69.5,59.3,30.08,WSW,237,0.0,4.0,70,0.00,,,0.00,Wunderground v.1.15,2013-08-05 13:10:00,
2013-08-05 09:15:00,69.9,60.1,30.09,WSW,237,1.0,2.0,71,0.00,,,0.00,Wunderground v.1.15,2013-08-05 13:15:00,
2013-08-05 09:20:00,70.4,59.3,30.09,West,273,1.0,1.0,68,0.00,,,0.00,Wunderground v.1.15,2013-08-05 13:20:00,
2013-08-05 09:25:00,70.7,60.8,30.09,West,273,0.0,4.0,71,0.00,,,0.00,Wunderground v.1.15,2013-08-05 13:25:00,
2013-08-05 09:30:00,70.3,60.1,30.09,West,281,2.0,2.0,70,0.00,,,0.00,Wunderground v.1.15,2013-08-05 13:30:00,
2013-08-05 09:35:00,70.8,59.3,30.09,West,279,1.0,3.0,67,0.00,,,0.00,Wunderground v.1.15,2013-08-05 13:35:00,
2013-08-05 09:40:00,70.5,58.6,30.09,East,79,4.0,4.0,66,0.00,,,0.00,Wunderground v.1.15,2013-08-05 13:40:00,
2013-08-05 09:45:00,70.6,58.7,30.09,East,85,7.0,7.0,66,0.00,,,0.00,Wunderground v.1.15,2013-08-05 13:45:00,
2013-08-05 09:50:00,70.4,59.7,30.08,East,88,0.0,2.0,69,0.00,,,0.00,Wunderground v.1.15,2013-08-05 13:50:00,
2013-08-05 09:56:00,71.2,60.1,30.08,East,88,0.0,2.0,68,0.00,,,0.00,Wunderground v.1.15,2013-08-05 13:56:00,
2013-08-05 10:02:00,71.7,58.9,30.08,ENE,74,1.0,3.0,64,0.00,,,0.00,Wunderground v.1.15,2013-08-05 14:02:00,
2013-08-05 10:07:00,71.7,59.3,30.08,ENE,71,1.0,5.0,65,0.00,,,0.00,Wunderground v.1.15,2013-08-05 14:07:00,
2013-08-05 10:13:00,71.7,59.7,30.08,ENE,57,1.0,2.0,66,0.00,,,0.00,Wunderground v.1.15,2013-08-05 14:13:00,
2013-08-05 10:18:00,73.1,60.6,30.08,SSW,207,0.0,5.0,65,0.00,,,0.00,Wunderground v.1.15,2013-08-05 14:18:00,
2013-08-05 10:23:00,73.3,60.4,30.08,SW,221,0.0,2.0,64,0.00,,,0.00,Wunderground v.1.15,2013-08-05 14:23:00,
2013-08-05 10:28:00,74.7,61.3,30.08,South,187,0.0,2.0,63,0.00,,,0.00,Wunderground v.1.15,2013-08-05 14:28:00,
2013-08-05 10:33:00,73.0,60.5,30.08,SSE,154,2.0,2.0,65,0.00,,,0.00,Wunderground v.1.15,2013-08-05 14:33:00,
2013-08-05 10:40:00,72.6,58.8,30.08,ENE,76,1.0,1.0,62,0.00,,,0.00,Wunderground v.1.15,2013-08-05 14:40:00,
2013-08-05 10:45:00,73.1,60.2,30.08,ENE,63,1.0,1.0,64,0.00,,,0.00,Wunderground v.1.15,2013-08-05 14:45:00,
2013-08-05 10:50:00,73.3,60.8,30.08,ENE,63,1.0,1.0,65,0.00,,,0.00,Wunderground v.1.15,2013-08-05 14:50:00,
2013-08-05 10:55:00,73.7,60.3,30.08,SE,142,2.0,2.0,63,0.00,,,0.00,Wunderground v.1.15,2013-08-05 14:55:00,
2013-08-05 11:01:00,75.5,62.9,30.08,SSW,193,3.0,3.0,65,0.00,,,0.00,Wunderground v.1.15,2013-08-05 15:01:00,
2013-08-05 11:06:00,76.4,65.5,30.08,West,277,1.0,3.0,69,0.00,,,0.00,Wunderground v.1.15,2013-08-05 15:06:00,
2013-08-05 11:12:00,76.1,61.7,30.08,West,275,0.0,1.0,61,0.00,,,0.00,Wunderground v.1.15,2013-08-05 15:12:00,
2013-08-05 11:16:00,76.4,62.9,30.08,SSW,196,4.0,5.0,63,0.00,,,0.00,Wunderground v.1.15,2013-08-05 15:16:00,
2013-08-05 11:22:00,76.9,64.2,30.08,South,180,0.0,3.0,65,0.00,,,0.00,Wunderground v.1.15,2013-08-05 15:22:00,
2013-08-05 11:27:00,75.6,61.7,30.08,SE,124,1.0,3.0,62,0.00,,,0.00,Wunderground v.1.15,2013-08-05 15:27:00,
2013-08-05 11:32:00,75.0,58.7,30.08,SE,141,2.0,3.0,57,0.00,,,0.00,Wunderground v.1.15,2013-08-05 15:32:00,
2013-08-05 11:37:00,74.6,59.3,30.08,West,265,0.0,4.0,59,0.00,,,0.00,Wunderground v.1.15,2013-08-05 15:37:00,
2013-08-05 11:42:00,73.8,60.9,30.08,West,273,3.0,3.0,64,0.00,,,0.00,Wunderground v.1.15,2013-08-05 15:42:00,
2013-08-05 11:47:00,72.8,57.2,30.08,West,281,1.0,3.0,58,0.00,,,0.00,Wunderground v.1.15,2013-08-05 15:47:00,
2013-08-05 11:52:00,74.9,60.1,30.08,SW,234,2.0,2.0,60,0.00,,,0.00,Wunderground v.1.15,2013-08-05 15:52:00,
2013-08-05 11:57:00,75.4,58.1,30.08,WSW,254,1.0,3.0,55,0.00,,,0.00,Wunderground v.1.15,2013-08-05 15:57:00,
2013-08-05 12:03:00,74.5,59.2,30.08,SW,232,1.0,2.0,59,0.00,,,0.00,Wunderground v.1.15,2013-08-05 16:03:00,
2013-08-05 12:08:00,75.2,56.9,30.07,SSW,213,0.0,3.0,53,0.00,,,0.00,Wunderground v.1.15,2013-08-05 16:08:00,
2013-08-05 12:13:00,75.7,57.9,30.07,SW,223,1.0,4.0,54,0.00,,,0.00,Wunderground v.1.15,2013-08-05 16:13:00,
2013-08-05 12:18:00,77.8,60.3,30.07,ESE,123,1.0,4.0,55,0.00,,,0.00,Wunderground v.1.15,2013-08-05 16:18:00,
2013-08-05 12:23:00,75.8,56.9,30.07,SE,143,2.0,4.0,52,0.00,,,0.00,Wunderground v.1.15,2013-08-05 16:23:00,
2013-08-05 12:29:00,78.0,58.4,30.06,South,182,3.0,5.0,51,0.00,,,0.00,Wunderground v.1.15,2013-08-05 16:29:00,
2013-08-05 12:34:00,78.3,58.7,30.06,South,177,2.0,6.0,51,0.00,,,0.00,Wunderground v.1.15,2013-08-05 16:34:00,
2013-08-05 12:39:00,76.9,58.5,30.06,South,190,3.0,6.0,53,0.00,,,0.00,Wunderground v.1.15,2013-08-05 16:39:00,
2013-08-05 12:44:00,77.1,60.7,30.06,SSE,153,1.0,2.0,57,0.00,,,0.00,Wunderground v.1.15,2013-08-05 16:44:00,
2013-08-05 12:49:00,78.4,56.5,30.06,SSW,207,2.0,4.0,47,0.00,,,0.00,Wunderground v.1.15,2013-08-05 16:49:00,
2013-08-05 12:55:00,77.9,58.3,30.06,North,356,1.0,4.0,51,0.00,,,0.00,Wunderground v.1.15,2013-08-05 16:55:00,
2013-08-05 12:59:00,78.4,60.9,30.05,WNW,299,3.0,3.0,55,0.00,,,0.00,Wunderground v.1.15,2013-08-05 16:59:00,
2013-08-05 13:05:00,78.3,58.1,30.05,NW,304,3.0,4.0,50,0.00,,,0.00,Wunderground v.1.15,2013-08-05 17:05:00,
2013-08-05 13:10:00,79.7,58.8,30.05,WNW,288,4.0,4.0,49,0.00,,,0.00,Wunderground v.1.15,2013-08-05 17:10:00,
2013-08-05 13:14:00,79.5,58.1,30.05,South,177,7.0,7.0,48,0.00,,,0.00,Wunderground v.1.15,2013-08-05 17:14:00,
2013-08-05 13:20:00,78.4,60.4,30.05,WSW,241,0.0,7.0,54,0.00,,,0.00,Wunderground v.1.15,2013-08-05 17:20:00,
2013-08-05 13:25:00,80.2,59.9,30.05,WSW,251,3.0,3.0,50,0.00,,,0.00,Wunderground v.1.15,2013-08-05 17:25:00,
2013-08-05 13:30:00,80.0,60.8,30.05,West,279,3.0,4.0,52,0.00,,,0.00,Wunderground v.1.15,2013-08-05 17:30:00,
2013-08-05 13:35:00,79.3,57.3,30.04,West,275,2.0,4.0,47,0.00,,,0.00,Wunderground v.1.15,2013-08-05 17:35:00,
2013-08-05 13:42:00,79.8,57.2,30.04,South,191,3.0,3.0,46,0.00,,,0.00,Wunderground v.1.15,2013-08-05 17:42:00,
2013-08-05 13:47:00,80.1,57.5,30.04,West,273,0.0,4.0,46,0.00,,,0.00,Wunderground v.1.15,2013-08-05 17:47:00,
2013-08-05 13:52:00,80.0,57.4,30.04,SSW,193,3.0,5.0,46,0.00,,,0.00,Wunderground v.1.15,2013-08-05 17:52:00,
2013-08-05 13:56:00,79.9,56.0,30.04,NW,311,3.0,5.0,44,0.00,,,0.00,Wunderground v.1.15,2013-08-05 17:56:00,
2013-08-05 14:01:00,79.6,57.0,30.04,South,186,4.0,6.0,46,0.00,,,0.00,Wunderground v.1.15,2013-08-05 18:01:00,
2013-08-05 14:07:00,78.7,57.9,30.03,NE,36,2.0,6.0,49,0.00,,,0.00,Wunderground v.1.15,2013-08-05 18:07:00,
2013-08-05 14:12:00,78.8,55.7,30.03,NE,47,3.0,3.0,45,0.00,,,0.00,Wunderground v.1.15,2013-08-05 18:12:00,
2013-08-05 14:17:00,79.2,58.4,30.03,WSW,248,2.0,5.0,49,0.00,,,0.00,Wunderground v.1.15,2013-08-05 18:17:00,
2013-08-05 14:22:00,80.3,55.1,30.02,SW,227,1.0,3.0,42,0.00,,,0.00,Wunderground v.1.15,2013-08-05 18:22:00,
2013-08-05 14:27:00,80.2,56.3,30.02,West,275,5.0,6.0,44,0.00,,,0.00,Wunderground v.1.15,2013-08-05 18:27:00,
2013-08-05 14:33:00,81.0,57.0,30.02,West,272,1.0,3.0,44,0.00,,,0.00,Wunderground v.1.15,2013-08-05 18:33:00,
2013-08-05 14:38:00,81.2,60.2,30.02,West,279,4.0,5.0,49,0.00,,,0.00,Wunderground v.1.15,2013-08-05 18:38:00,
2013-08-05 14:43:00,80.6,60.8,30.02,WSW,242,1.0,3.0,51,0.00,,,0.00,Wunderground v.1.15,2013-08-05 18:43:00,
2013-08-05 14:48:00,80.2,59.3,30.02,West,265,3.0,4.0,49,0.00,,,0.00,Wunderground v.1.15,2013-08-05 18:48:00,
2013-08-05 14:53:00,80.4,58.3,30.01,WSW,246,1.0,4.0,47,0.00,,,0.00,Wunderground v.1.15,2013-08-05 18:53:00,
2013-08-05 14:59:00,80.1,54.3,30.02,WSW,257,0.0,4.0,41,0.00,,,0.00,Wunderground v.1.15,2013-08-05 18:59:00,
2013-08-05 15:04:00,78.8,57.4,30.02,West,260,2.0,3.0,48,0.00,,,0.00,Wunderground v.1.15,2013-08-05 19:04:00,
2013-08-05 15:10:00,78.1,53.8,30.01,SW,232,1.0,3.0,43,0.00,,,0.00,Wunderground v.1.15,2013-08-05 19:10:00,
2013-08-05 15:15:00,77.9,55.5,30.01,SW,225,2.0,3.0,46,0.00,,,0.00,Wunderground v.1.15,2013-08-05 19:15:00,
2013-08-05 15:20:00,78.3,57.0,30.01,SW,234,2.0,2.0,48,0.00,,,0.00,Wunderground v.1.15,2013-08-05 19:20:00,
2013-08-05 15:25:00,78.8,58.0,30.00,WNW,287,1.0,3.0,49,0.00,,,0.00,Wunderground v.1.15,2013-08-05 19:25:00,
2013-08-05 15:31:00,78.5,57.2,30.00,West,269,0.0,1.0,48,0.00,,,0.00,Wunderground v.1.15,2013-08-05 19:31:00,
2013-08-05 15:36:00,79.2,59.0,30.01,WNW,294,3.0,3.0,50,0.00,,,0.00,Wunderground v.1.15,2013-08-05 19:36:00,
2013-08-05 15:42:00,77.9,54.8,30.01,SSW,196,2.0,2.0,45,0.00,,,0.00,Wunderground v.1.15,2013-08-05 19:42:00,
2013-08-05 15:47:00,76.6,54.9,30.01,South,181,2.0,4.0,47,0.00,,,0.00,Wunderground v.1.15,2013-08-05 19:47:00,
2013-08-05 15:52:00,76.1,55.5,30.01,South,181,1.0,2.0,49,0.00,,,0.00,Wunderground v.1.15,2013-08-05 19:52:00,
2013-08-05 15:58:00,75.9,54.2,30.00,South,181,0.0,2.0,47,0.00,,,0.00,Wunderground v.1.15,2013-08-05 19:58:00,
2013-08-05 16:03:00,77.5,59.5,30.00,WSW,238,1.0,3.0,54,0.00,,,0.00,Wunderground v.1.15,2013-08-05 20:03:00,
2013-08-05 16:08:00,78.5,55.4,30.00,West,266,1.0,3.0,45,0.00,,,0.00,Wunderground v.1.15,2013-08-05 20:08:00,
2013-08-05 16:13:00,79.0,54.6,30.00,South,180,2.0,5.0,43,0.00,,,0.00,Wunderground v.1.15,2013-08-05 20:13:00,
2013-08-05 16:18:00,77.7,54.0,30.00,WNW,294,1.0,6.0,44,0.00,,,0.00,Wunderground v.1.15,2013-08-05 20:18:00,
2013-08-05 16:23:00,77.8,55.4,30.00,WNW,284,3.0,4.0,46,0.00,,,0.00,Wunderground v.1.15,2013-08-05 20:23:00,
2013-08-05 16:29:00,76.9,55.1,30.00,WNW,282,1.0,4.0,47,0.00,,,0.00,Wunderground v.1.15,2013-08-05 20:29:00,
2013-08-05 16:34:00,76.5,55.3,30.00,WNW,282,0.0,2.0,48,0.00,,,0.00,Wunderground v.1.15,2013-08-05 20:34:00,
2013-08-05 16:39:00,76.3,55.2,30.00,West,277,0.0,2.0,48,0.00,,,0.00,Wunderground v.1.15,2013-08-05 20:39:00,
2013-08-05 16:44:00,77.1,55.9,30.00,West,279,0.0,1.0,48,0.00,,,0.00,Wunderground v.1.15,2013-08-05 20:44:00,
2013-08-05 16:49:00,77.8,54.8,30.00,ENE,61,1.0,3.0,45,0.00,,,0.00,Wunderground v.1.15,2013-08-05 20:49:00,
2013-08-05 16:54:00,77.3,56.6,30.00,SW,225,4.0,4.0,49,0.00,,,0.00,Wunderground v.1.15,2013-08-05 20:54:00,
2013-08-05 16:59:00,77.9,57.8,30.00,ESE,118,1.0,5.0,50,0.00,,,0.00,Wunderground v.1.15,2013-08-05 20:59:00,
2013-08-05 17:04:00,78.4,58.8,30.00,WNW,290,3.0,4.0,51,0.00,,,0.00,Wunderground v.1.15,2013-08-05 21:04:00,
2013-08-05 17:10:00,79.3,55.5,30.00,WNW,286,3.0,6.0,44,0.00,,,0.00,Wunderground v.1.15,2013-08-05 21:10:00,
2013-08-05 17:15:00,77.7,56.4,30.00,WNW,298,2.0,3.0,48,0.00,,,0.00,Wunderground v.1.15,2013-08-05 21:15:00,
2013-08-05 17:20:00,78.9,59.8,29.99,West,279,3.0,3.0,52,0.00,,,0.00,Wunderground v.1.15,2013-08-05 21:20:00,
2013-08-05 17:25:00,79.7,55.9,30.00,West,279,0.0,5.0,44,0.00,,,0.00,Wunderground v.1.15,2013-08-05 21:25:00,
2013-08-05 17:30:00,80.1,59.8,30.00,WNW,284,3.0,4.0,50,0.00,,,0.00,Wunderground v.1.15,2013-08-05 21:30:00,
2013-08-05 17:35:00,79.8,57.2,30.00,WNW,284,3.0,6.0,46,0.00,,,0.00,Wunderground v.1.15,2013-08-05 21:35:00,
2013-08-05 17:40:00,79.6,57.0,30.00,NW,313,4.0,5.0,46,0.00,,,0.00,Wunderground v.1.15,2013-08-05 21:40:00,
2013-08-05 17:45:00,79.5,55.0,30.00,WNW,282,1.0,5.0,43,0.00,,,0.00,Wunderground v.1.15,2013-08-05 21:45:00,
2013-08-05 17:51:00,79.6,55.8,30.00,West,281,4.0,4.0,44,0.00,,,0.00,Wunderground v.1.15,2013-08-05 21:51:00,
2013-08-05 17:56:00,78.5,54.8,30.00,West,264,2.0,5.0,44,0.00,,,0.00,Wunderground v.1.15,2013-08-05 21:56:00,
2013-08-05 18:02:00,77.7,53.4,30.00,West,268,4.0,4.0,43,0.00,,,0.00,Wunderground v.1.15,2013-08-05 22:02:00,
2013-08-05 18:07:00,77.4,54.4,30.00,West,266,1.0,4.0,45,0.00,,,0.00,Wunderground v.1.15,2013-08-05 22:07:00,
2013-08-05 18:12:00,77.5,55.1,30.00,SSW,210,2.0,3.0,46,0.00,,,0.00,Wunderground v.1.15,2013-08-05 22:12:00,
2013-08-05 18:19:00,78.0,56.1,30.00,WSW,248,0.0,3.0,47,0.00,,,0.00,Wunderground v.1.15,2013-08-05 22:19:00,
2013-08-05 18:24:00,78.1,55.6,30.01,West,274,2.0,3.0,46,0.00,,,0.00,Wunderground v.1.15,2013-08-05 22:24:00,
2013-08-05 18:29:00,77.7,55.3,30.00,West,275,1.0,3.0,46,0.00,,,0.00,Wunderground v.1.15,2013-08-05 22:29:00,
2013-08-05 18:34:00,77.3,55.5,30.01,West,275,1.0,2.0,47,0.00,,,0.00,Wunderground v.1.15,2013-08-05 22:34:00,
2013-08-05 18:40:00,77.0,55.8,30.01,West,279,1.0,2.0,48,0.00,,,0.00,Wunderground v.1.15,2013-08-05 22:40:00,
2013-08-05 18:45:00,76.6,53.7,30.00,WSW,247,0.0,3.0,45,0.00,,,0.00,Wunderground v.1.15,2013-08-05 22:45:00,
2013-08-05 18:50:00,76.0,54.9,30.00,WNW,285,1.0,1.0,48,0.00,,,0.00,Wunderground v.1.15,2013-08-05 22:50:00,
2013-08-05 18:55:00,75.8,55.8,30.00,WNW,285,0.0,1.0,50,0.00,,,0.00,Wunderground v.1.15,2013-08-05 22:55:00,
2013-08-05 19:01:00,75.8,54.7,30.01,WNW,285,0.0,0.0,48,0.00,,,0.00,Wunderground v.1.15,2013-08-05 23:01:00,
2013-08-05 19:06:00,75.4,56.5,30.01,WNW,285,0.0,1.0,52,0.00,,,0.00,Wunderground v.1.15,2013-08-05 23:06:00,
2013-08-05 19:11:00,75.0,56.2,30.01,WNW,285,0.0,0.0,52,0.00,,,0.00,Wunderground v.1.15,2013-08-05 23:11:00,
2013-08-05 19:16:00,75.0,56.2,30.01,WNW,285,0.0,1.0,52,0.00,,,0.00,Wunderground v.1.15,2013-08-05 23:16:00,
2013-08-05 19:21:00,75.1,56.3,30.01,WNW,285,0.0,1.0,52,0.00,,,0.00,Wunderground v.1.15,2013-08-05 23:21:00,
2013-08-05 19:26:00,75.1,56.3,30.02,WNW,285,0.0,1.0,52,0.00,,,0.00,Wunderground v.1.15,2013-08-05 23:26:00,
2013-08-05 19:31:00,74.8,56.5,30.02,WNW,285,0.0,0.0,53,0.00,,,0.00,Wunderground v.1.15,2013-08-05 23:31:00,
2013-08-05 19:36:00,74.4,55.6,30.02,WNW,290,0.0,2.0,52,0.00,,,0.00,Wunderground v.1.15,2013-08-05 23:36:00,
2013-08-05 19:42:00,74.1,56.4,30.01,WNW,290,0.0,0.0,54,0.00,,,0.00,Wunderground v.1.15,2013-08-05 23:42:00,
2013-08-05 19:47:00,74.0,55.3,30.01,WNW,290,0.0,1.0,52,0.00,,,0.00,Wunderground v.1.15,2013-08-05 23:47:00,
2013-08-05 19:53:00,73.9,56.2,30.02,WNW,290,0.0,1.0,54,0.00,,,0.00,Wunderground v.1.15,2013-08-05 23:53:00,
2013-08-05 19:58:00,73.9,55.7,30.02,WNW,290,0.0,1.0,53,0.00,,,0.00,Wunderground v.1.15,2013-08-05 23:58:00,
2013-08-05 20:03:00,73.8,56.6,30.02,WNW,290,0.0,0.0,55,0.00,,,0.00,Wunderground v.1.15,2013-08-06 00:03:00,
2013-08-05 20:08:00,73.5,56.3,30.02,WNW,290,0.0,1.0,55,0.00,,,0.00,Wunderground v.1.15,2013-08-06 00:08:00,
2013-08-05 20:13:00,73.0,55.9,30.01,WNW,290,0.0,0.0,55,0.00,,,0.00,Wunderground v.1.15,2013-08-06 00:13:00,
2013-08-05 20:19:00,72.2,57.1,30.02,WNW,290,0.0,0.0,59,0.00,,,0.00,Wunderground v.1.15,2013-08-06 00:19:00,
2013-08-05 20:24:00,71.9,56.8,30.02,WNW,290,0.0,0.0,59,0.00,,,0.00,Wunderground v.1.15,2013-08-06 00:24:00,
2013-08-05 20:29:00,72.1,56.5,30.01,WNW,290,0.0,1.0,58,0.00,,,0.00,Wunderground v.1.15,2013-08-06 00:29:00,
2013-08-05 20:34:00,72.3,56.7,30.01,WNW,290,0.0,0.0,58,0.00,,,0.00,Wunderground v.1.15,2013-08-06 00:34:00,
2013-08-05 20:39:00,72.5,56.9,30.02,WNW,290,0.0,0.0,58,0.00,,,0.00,Wunderground v.1.15,2013-08-06 00:39:00,
2013-08-05 20:44:00,72.3,56.7,30.02,WNW,290,0.0,0.0,58,0.00,,,0.00,Wunderground v.1.15,2013-08-06 00:44:00,
2013-08-05 20:49:00,71.9,56.3,30.01,WNW,290,0.0,0.0,58,0.00,,,0.00,Wunderground v.1.15,2013-08-06 00:49:00,
2013-08-05 20:55:00,71.5,56.9,30.02,WNW,290,0.0,0.0,60,0.00,,,0.00,Wunderground v.1.15,2013-08-06 00:55:00,
2013-08-05 21:00:00,71.3,56.7,30.02,WNW,290,0.0,0.0,60,0.00,,,0.00,Wunderground v.1.15,2013-08-06 01:00:00,
2013-08-05 21:05:00,71.4,56.8,30.02,WNW,290,0.0,0.0,60,0.00,,,0.00,Wunderground v.1.15,2013-08-06 01:05:00,
2013-08-05 21:11:00,71.1,56.5,30.02,WNW,290,0.0,0.0,60,0.00,,,0.00,Wunderground v.1.15,2013-08-06 01:11:00,
2013-08-05 21:16:00,71.2,56.6,30.02,WNW,290,0.0,0.0,60,0.00,,,0.00,Wunderground v.1.15,2013-08-06 01:16:00,
2013-08-05 21:21:00,71.5,57.3,30.02,WNW,290,0.0,0.0,61,0.00,,,0.00,Wunderground v.1.15,2013-08-06 01:21:00,
2013-08-05 21:26:00,71.3,57.2,30.01,WNW,290,0.0,0.0,61,0.00,,,0.00,Wunderground v.1.15,2013-08-06 01:26:00,
2013-08-05 21:32:00,71.6,56.5,30.02,WNW,290,0.0,0.0,59,0.00,,,0.00,Wunderground v.1.15,2013-08-06 01:32:00,
2013-08-05 21:37:00,71.6,57.0,30.01,WNW,290,0.0,0.0,60,0.00,,,0.00,Wunderground v.1.15,2013-08-06 01:37:00,
2013-08-05 21:42:00,71.8,56.7,30.01,WNW,290,0.0,1.0,59,0.00,,,0.00,Wunderground v.1.15,2013-08-06 01:42:00,
2013-08-05 21:47:00,71.6,57.0,30.00,WNW,290,0.0,1.0,60,0.00,,,0.00,Wunderground v.1.15,2013-08-06 01:47:00,
2013-08-05 21:53:00,71.5,57.3,30.00,WNW,290,0.0,0.0,61,0.00,,,0.00,Wunderground v.1.15,2013-08-06 01:53:00,
2013-08-05 21:58:00,71.2,57.5,30.00,WNW,290,0.0,0.0,62,0.00,,,0.00,Wunderground v.1.15,2013-08-06 01:58:00,
2013-08-05 22:03:00,70.9,57.7,30.00,WNW,290,0.0,0.0,63,0.00,,,0.00,Wunderground v.1.15,2013-08-06 02:03:00,
2013-08-05 22:08:00,71.0,57.8,30.00,WNW,290,0.0,1.0,63,0.00,,,0.00,Wunderground v.1.15,2013-08-06 02:08:00,
2013-08-05 22:13:00,70.9,57.7,30.00,WNW,290,0.0,1.0,63,0.00,,,0.00,Wunderground v.1.15,2013-08-06 02:13:00,
2013-08-05 22:18:00,70.8,57.6,30.00,WNW,290,0.0,1.0,63,0.00,,,0.00,Wunderground v.1.15,2013-08-06 02:18:00,
2013-08-05 22:23:00,70.6,57.8,30.00,WNW,290,0.0,0.0,64,0.00,,,0.00,Wunderground v.1.15,2013-08-06 02:23:00,
2013-08-05 22:28:00,70.5,57.7,30.00,WNW,290,0.0,0.0,64,0.00,,,0.00,Wunderground v.1.15,2013-08-06 02:28:00,
2013-08-05 22:33:00,70.3,58.0,30.00,WNW,290,0.0,0.0,65,0.00,,,0.00,Wunderground v.1.15,2013-08-06 02:33:00,
2013-08-05 22:38:00,69.8,58.3,30.01,WNW,290,0.0,0.0,67,0.00,,,0.00,Wunderground v.1.15,2013-08-06 02:38:00,
2013-08-05 22:43:00,69.4,58.8,30.01,WNW,290,0.0,0.0,69,0.00,,,0.00,Wunderground v.1.15,2013-08-06 02:43:00,
2013-08-05 22:49:00,69.0,58.8,30.01,WNW,290,0.0,0.0,70,0.00,,,0.00,Wunderground v.1.15,2013-08-06 02:49:00,
2013-08-05 22:54:00,69.0,58.8,30.01,WNW,290,0.0,0.0,70,0.00,,,0.00,Wunderground v.1.15,2013-08-06 02:54:00,
2013-08-05 22:59:00,69.2,58.6,30.01,WNW,290,0.0,0.0,69,0.00,,,0.00,Wunderground v.1.15,2013-08-06 02:59:00,
2013-08-05 23:04:00,69.4,58.8,30.01,WNW,290,0.0,0.0,69,0.00,,,0.00,Wunderground v.1.15,2013-08-06 03:04:00,
2013-08-05 23:09:00,69.5,58.9,30.01,WNW,290,0.0,0.0,69,0.00,,,0.00,Wunderground v.1.15,2013-08-06 03:09:00,
2013-08-05 23:15:00,69.4,59.2,30.01,WNW,290,0.0,0.0,70,0.00,,,0.00,Wunderground v.1.15,2013-08-06 03:15:00,
2013-08-05 23:20:00,69.1,58.9,30.00,WNW,290,0.0,0.0,70,0.00,,,0.00,Wunderground v.1.15,2013-08-06 03:20:00,
2013-08-05 23:25:00,69.0,59.2,30.00,WNW,290,0.0,0.0,71,0.00,,,0.00,Wunderground v.1.15,2013-08-06 03:25:00,
2013-08-05 23:32:00,68.8,59.4,30.00,WNW,290,0.0,0.0,72,0.00,,,0.00,Wunderground v.1.15,2013-08-06 03:32:00,
2013-08-05 23:37:00,68.6,59.6,30.00,WNW,290,0.0,0.0,73,0.00,,,0.00,Wunderground v.1.15,2013-08-06 03:37:00,
2013-08-05 23:42:00,68.2,59.6,30.00,WNW,290,0.0,0.0,74,0.00,,,0.00,Wunderground v.1.15,2013-08-06 03:42:00,
2013-08-05 23:47:00,67.8,59.6,30.01,WNW,290,0.0,0.0,75,0.00,,,0.00,Wunderground v.1.15,2013-08-06 03:47:00,
2013-08-05 23:52:00,67.9,59.7,30.01,WNW,290,0.0,0.0,75,0.00,,,0.00,Wunderground v.1.15,2013-08-06 03:52:00,
2013-08-05 23:57:00,67.7,59.9,30.01,WNW,290,1.0,1.0,76,0.00,,,0.00,Wunderground v.1.15,2013-08-06 03:57:00,